sat.trackr.live / text

‹ back to catalog

STARLINK-32347

NORAD 61010 · 2024-158W

PAYLOAD ACTIVE UNKNOWN

§ Identity

Operator
Country
US
Launch date
2024-09-05
Launch site
AFETR
Launch vehicle
Mass (kg)
RCS (m²)

Purposes: comms

External: N2YO · Heavens-Above · Gunter

§ Orbital elements

Epoch: 2026-05-25T04:23:13.679808Z

Period
94.11 min
Inclination
53.1612°
Eccentricity
0.0001260
Mean motion
15.30192893 rev/d
Perigee alt
474.4 km
Apogee alt
476.1 km
Semi-major
6,853.4 km
B*
2.2269e-5
RAAN
70.1566°
Arg perigee
91.9500°
Mean anomaly
268.1645°
Rev number
9,729

§ Raw data

STARLINK-323471 61010U 24158W   26145.18279722  .00000300  00000+0  22269-4 0  99912 61010  53.1612  70.1566 0001260  91.9500 268.1645 15.30192893 97296

JSON: /api/v1/satellites/61010 · /tle

For live sub-satellite position, see the globe view (requires WebGL).

§ Visibility from observer

Set your observer location to see the next 7 days of passes ≥ 10°. The values pass through the URL so the page stays shareable.

No JS? Fill the form by hand. The geolocation button needs JavaScript.